User: anonymous   Login
Location: Gombori
(14.9797°N, 2.9419°W)
Time: 13:41:19
(UTC+00:00)
Language:

CSL-04 Deb - Orbit

View from above orbital plane
View from above orbital plane
View from above satellite
View from above satellite

Ground track
Ground track

The orbit data is extracted from the following two-line orbital elements,

1 26268U 99057FE  22268.56781843  .00005079  00000-0  59249-3 0  9999
2 26268  98.7454 283.1869 0010249  69.3575 290.8736 14.85668590207388
Epoch (UTC): 25 September 2022 13:37:39
Eccentricity: 0.0010249
inclination: 98.7454°
perigee height: 604 km
apogee height: 618 km
right ascension of ascending node: 283.1869°
argument of perigee: 69.3575°
revolutions per day: 14.85668590
mean anomaly at epoch: 290.8736°
orbit number at epoch: 20738

The dashed part of the orbit path shows where the satellite is in the earth's shadow,  

DLR